Previsão horária em Abdrahmanovo

Hoje, 12 Abril, Segunda-feira

Tempo Temperatura Precipitação Vento Pressão Humidade
00:00 +5°C° 0 mm 3 m/s 755 mmHg 86%
01:00 +5°C° 0 mm 2 m/s 755 mmHg 87%
02:00 +5°C° 0 mm 2 m/s 755 mmHg 87%
03:00 +5°C° 0 mm 2 m/s 755 mmHg 86%
04:00 +5°C° 0 mm 2 m/s 755 mmHg 86%
05:00 +5°C° 0 mm 2 m/s 755 mmHg 85%
06:00 +5°C° 0 mm 2 m/s 755 mmHg 84%
07:00 +5°C° 0 mm 2 m/s 756 mmHg 83%
08:00 +8°C° 0 mm 1 m/s 756 mmHg 77%
09:00 +10°C° 0 mm 1 m/s 756 mmHg 71%
10:00 +11°C° 0 mm 1 m/s 756 mmHg 66%
11:00 +12°C° 0 mm 1 m/s 756 mmHg 62%
12:00 +14°C° 0 mm 1 m/s 756 mmHg 59%
13:00 +15°C° 0 mm 2 m/s 756 mmHg 56%
14:00 +15°C° 0 mm 2 m/s 756 mmHg 58%
15:00 +14°C° 0 mm 3 m/s 756 mmHg 61%
16:00 +14°C° 0 mm 4 m/s 756 mmHg 63%
17:00 +13°C° 0 mm 3 m/s 756 mmHg 64%
18:00 +12°C° 0 mm 3 m/s 756 mmHg 73%
19:00 +10°C° 0 mm 3 m/s 756 mmHg 82%
20:00 +10°C° 0 mm 3 m/s 757 mmHg 84%
21:00 +9°C° 0 mm 2 m/s 757 mmHg 86%
22:00 +9°C° 0 mm 2 m/s 757 mmHg 89%
23:00 +9°C° 0 mm 2 m/s 757 mmHg 89%

Amanhã, 13 Abril, Terça-feira

Tempo Temperatura Precipitação Vento Pressão Humidade
00:00 +10°C° 0 mm 1 m/s 757 mmHg 90%
01:00 +9°C° 0 mm 1 m/s 757 mmHg 91%
02:00 +9°C° 0 mm 1 m/s 757 mmHg 90%
03:00 +9°C° 0 mm 1 m/s 757 mmHg 89%
04:00 +9°C° 0 mm 1 m/s 757 mmHg 89%
05:00 +9°C° 0 mm 1 m/s 757 mmHg 86%
06:00 +8°C° 0 mm 2 m/s 757 mmHg 83%
07:00 +8°C° 0 mm 2 m/s 758 mmHg 81%
08:00 +9°C° 0 mm 3 m/s 758 mmHg 77%
09:00 +10°C° 0 mm 3 m/s 758 mmHg 73%
10:00 +11°C° 0 mm 3 m/s 758 mmHg 70%
11:00 +12°C° 0 mm 3 m/s 758 mmHg 64%
12:00 +13°C° 0 mm 3 m/s 758 mmHg 58%
13:00 +16°C° 0 mm 3 m/s 757 mmHg 52%
14:00 +16°C° 0 mm 3 m/s 757 mmHg 50%
15:00 +17°C° 0 mm 3 m/s 757 mmHg 48%
16:00 +17°C° 0 mm 3 m/s 757 mmHg 46%
17:00 +16°C° 0 mm 2 m/s 756 mmHg 51%
18:00 +15°C° 0 mm 2 m/s 756 mmHg 56%
19:00 +14°C° 0 mm 2 m/s 756 mmHg 62%
20:00 +13°C° 0 mm 2 m/s 756 mmHg 67%
21:00 +12°C° 0 mm 2 m/s 756 mmHg 71%
22:00 +10°C° 0 mm 2 m/s 756 mmHg 76%
23:00 +9°C° 0 mm 3 m/s 756 mmHg 80%

Depois de amanhã, 14 Abril, Quarta-feira

Tempo Temperatura Precipitação Vento Pressão Humidade
00:00 +9°C° 0 mm 3 m/s 755 mmHg 84%
01:00 +8°C° 0 mm 3 m/s 755 mmHg 87%
02:00 +8°C° 0 mm 2 m/s 755 mmHg 88%
03:00 +7°C° 0 mm 2 m/s 755 mmHg 89%
04:00 +7°C° 0 mm 2 m/s 755 mmHg 89%
05:00 +7°C° 0 mm 2 m/s 755 mmHg 88%
06:00 +7°C° 0 mm 2 m/s 755 mmHg 87%
07:00 +8°C° 0 mm 1 m/s 755 mmHg 86%
08:00 +10°C° 0 mm 1 m/s 754 mmHg 79%
09:00 +12°C° 0 mm 1 m/s 754 mmHg 71%
10:00 +13°C° 0 mm 1 m/s 754 mmHg 64%
11:00 +14°C° 0 mm 1 m/s 754 mmHg 60%
12:00 +16°C° 0 mm 1 m/s 753 mmHg 56%
13:00 +18°C° 0 mm 1 m/s 753 mmHg 51%
14:00 +18°C° 0 mm 1 m/s 752 mmHg 50%
15:00 +19°C° 0 mm 1 m/s 752 mmHg 49%
16:00 +19°C° 0 mm 1 m/s 751 mmHg 48%
17:00 +18°C° 0 mm 1 m/s 751 mmHg 52%
18:00 +16°C° 0 mm 1 m/s 751 mmHg 57%
19:00 +15°C° 0 mm 1 m/s 750 mmHg 61%
20:00 +15°C° 0 mm 1 m/s 750 mmHg 64%
21:00 +14°C° 0 mm 1 m/s 750 mmHg 67%
22:00 +13°C° 0 mm 1 m/s 750 mmHg 70%
23:00 +12°C° 0 mm 1 m/s 750 mmHg 73%

15 Abril, Quinta-feira

Tempo Temperatura Precipitação Vento Pressão Humidade
00:00 +12°C° 0 mm 1 m/s 749 mmHg 75%
01:00 +11°C° 0 mm 1 m/s 749 mmHg 78%
02:00 +11°C° 0 mm 1 m/s 749 mmHg 78%
03:00 +10°C° 0 mm 1 m/s 749 mmHg 79%
04:00 +10°C° 0 mm 1 m/s 749 mmHg 80%
05:00 +10°C° 0 mm 1 m/s 749 mmHg 76%
06:00 +10°C° 0 mm 1 m/s 749 mmHg 73%
07:00 +9°C° 0 mm 2 m/s 749 mmHg 70%
08:00 +12°C° 0 mm 2 m/s 748 mmHg 62%
09:00 +13°C° 0 mm 2 m/s 748 mmHg 55%
10:00 +15°C° 0 mm 2 m/s 748 mmHg 47%
11:00 +16°C° 0 mm 2 m/s 748 mmHg 43%
12:00 +17°C° 0 mm 3 m/s 747 mmHg 38%
13:00 +18°C° 0 mm 3 m/s 747 mmHg 34%
14:00 +18°C° 0 mm 3 m/s 746 mmHg 33%
15:00 +19°C° 0 mm 3 m/s 746 mmHg 33%
16:00 +19°C° 0 mm 3 m/s 746 mmHg 32%
17:00 +18°C° 0 mm 2 m/s 745 mmHg 37%
18:00 +17°C° 0 mm 2 m/s 745 mmHg 42%
19:00 +16°C° 0 mm 2 m/s 745 mmHg 48%
20:00 +15°C° 0 mm 2 m/s 744 mmHg 50%
21:00 +14°C° 0 mm 2 m/s 744 mmHg 53%
22:00 +13°C° 0 mm 2 m/s 744 mmHg 55%
23:00 +12°C° 0 mm 2 m/s 744 mmHg 56%

16 Abril, Sexta-feira

Tempo Temperatura Precipitação Vento Pressão Humidade
00:00 +10°C° 0 mm 2 m/s 743 mmHg 58%
01:00 +10°C° 0 mm 2 m/s 743 mmHg 59%
02:00 +9°C° 0 mm 2 m/s 743 mmHg 60%
03:00 +9°C° 0 mm 2 m/s 743 mmHg 61%
04:00 +8°C° 0 mm 2 m/s 742 mmHg 62%
05:00 +8°C° 0 mm 2 m/s 742 mmHg 62%
06:00 +9°C° 0 mm 2 m/s 742 mmHg 63%
07:00 +9°C° 0 mm 2 m/s 741 mmHg 63%
08:00 +11°C° 0 mm 3 m/s 741 mmHg 57%
09:00 +13°C° 0 mm 3 m/s 741 mmHg 52%
10:00 +15°C° 0 mm 4 m/s 740 mmHg 46%
11:00 +17°C° 0 mm 4 m/s 740 mmHg 44%
12:00 +18°C° 0 mm 4 m/s 740 mmHg 42%
13:00 +19°C° 0 mm 5 m/s 739 mmHg 40%
14:00 +17°C° 0 mm 5 m/s 739 mmHg 43%
15:00 +17°C° 0 mm 6 m/s 738 mmHg 45%
16:00 +16°C° 0 mm 7 m/s 738 mmHg 48%
17:00 +12°C° 0.1 mm 7 m/s 738 mmHg 57%
18:00 +9°C° 0.1 mm 8 m/s 739 mmHg 65%
19:00 +5°C° 0.1 mm 9 m/s 740 mmHg 74%
20:00 +4°C° 0 mm 8 m/s 740 mmHg 73%
21:00 +3°C° 0 mm 7 m/s 740 mmHg 71%
22:00 +2°C° 0 mm 6 m/s 740 mmHg 70%
23:00 +2°C° 0 mm 7 m/s 740 mmHg 68%

17 Abril, Sábado

Tempo Temperatura Precipitação Vento Pressão Humidade
00:00 0°C° 0 mm 7 m/s 740 mmHg 66%
01:00 0°C° 0 mm 7 m/s 740 mmHg 65%
02:00 -1°C° 0 mm 7 m/s 741 mmHg 65%
03:00 -2°C° 0 mm 8 m/s 741 mmHg 66%
04:00 -4°C° 0 mm 8 m/s 741 mmHg 67%
05:00 -4°C° 0 mm 8 m/s 742 mmHg 68%
06:00 -4°C° 0 mm 8 m/s 742 mmHg 68%
07:00 -4°C° 0 mm 8 m/s 742 mmHg 69%
08:00 -2°C° 0 mm 7 m/s 742 mmHg 62%
09:00 -2°C° 0 mm 7 m/s 742 mmHg 56%
10:00 -1°C° 0 mm 7 m/s 742 mmHg 49%
11:00 0°C° 0 mm 7 m/s 742 mmHg 44%
12:00 +2°C° 0 mm 6 m/s 742 mmHg 38%
13:00 +3°C° 0 mm 6 m/s 742 mmHg 33%
14:00 +3°C° 0 mm 6 m/s 741 mmHg 32%
15:00 +3°C° 0 mm 6 m/s 741 mmHg 31%
16:00 +3°C° 0 mm 6 m/s 740 mmHg 30%
17:00 +3°C° 0 mm 6 m/s 740 mmHg 33%
18:00 +3°C° 0 mm 7 m/s 739 mmHg 36%
19:00 +2°C° 0 mm 7 m/s 739 mmHg 39%
20:00 +2°C° 0 mm 7 m/s 738 mmHg 45%
21:00 0°C° 0 mm 8 m/s 737 mmHg 51%
22:00 -1°C° 0 mm 8 m/s 736 mmHg 57%
23:00 -1°C° 0.1 mm 8 m/s 736 mmHg 59%
Mostrar mais